Time,TemperatureF,DewpointF,PressureIn,WindDirection,WindDirectionDegrees,WindSpeedMPH,WindSpeedGustMPH,Humidity,HourlyPrecipIn,Conditions,Clouds,dailyrainin,SoftwareType,DateUTC
2013-01-05 00:02:00,38.6,36.0,30.21,NE,50,0.0,0.0,91,0.00,,,0.00,weatherlink.com 1.10,2013-01-05 08:02:00,
2013-01-05 00:17:00,38.5,36.0,30.21,NE,50,0.0,0.0,92,0.00,,,0.00,weatherlink.com 1.10,2013-01-05 08:17:00,
2013-01-05 00:32:00,38.3,36.0,30.21,NE,50,0.0,0.0,92,0.00,,,0.00,weatherlink.com 1.10,2013-01-05 08:32:00,
2013-01-05 00:47:00,38.1,36.0,30.21,NE,50,0.0,0.0,92,0.00,,,0.00,weatherlink.com 1.10,2013-01-05 08:47:00,
2013-01-05 01:02:00,37.9,36.0,30.21,NE,50,0.0,0.0,92,0.00,,,0.00,weatherlink.com 1.10,2013-01-05 09:02:00,
2013-01-05 01:17:00,37.8,36.0,30.21,NE,50,0.0,0.0,92,0.00,,,0.00,weatherlink.com 1.10,2013-01-05 09:17:00,
2013-01-05 01:32:00,37.6,36.0,30.21,NE,50,0.0,0.0,92,0.00,,,0.00,weatherlink.com 1.10,2013-01-05 09:32:00,
2013-01-05 01:47:00,37.8,36.0,30.21,NE,50,0.0,1.0,93,0.00,,,0.00,weatherlink.com 1.10,2013-01-05 09:47:00,
2013-01-05 02:02:00,37.5,36.0,30.22,NE,50,0.0,0.0,93,0.00,,,0.00,weatherlink.com 1.10,2013-01-05 10:02:00,
2013-01-05 02:17:00,37.5,36.0,30.22,NE,50,0.0,1.0,93,0.00,,,0.00,weatherlink.com 1.10,2013-01-05 10:17:00,
2013-01-05 02:32:00,37.4,36.0,30.22,NE,50,0.0,0.0,93,0.00,,,0.00,weatherlink.com 1.10,2013-01-05 10:32:00,
2013-01-05 02:47:00,37.5,36.0,30.22,NE,50,0.0,0.0,93,0.00,,,0.00,weatherlink.com 1.10,2013-01-05 10:47:00,
2013-01-05 03:02:00,37.5,36.0,30.23,NE,50,0.0,0.0,93,0.00,,,0.00,weatherlink.com 1.10,2013-01-05 11:02:00,
2013-01-05 03:17:00,37.5,36.0,30.23,NE,50,0.0,1.0,93,0.00,,,0.00,weatherlink.com 1.10,2013-01-05 11:17:00,
2013-01-05 03:32:00,37.4,36.0,30.23,East,88,0.0,3.0,93,0.00,,,0.00,weatherlink.com 1.10,2013-01-05 11:32:00,
2013-01-05 03:47:00,37.2,35.0,30.23,East,88,0.0,0.0,93,0.00,,,0.00,weatherlink.com 1.10,2013-01-05 11:47:00,
2013-01-05 04:02:00,37.1,35.0,30.22,East,88,0.0,0.0,93,0.00,,,0.00,weatherlink.com 1.10,2013-01-05 12:02:00,
2013-01-05 04:17:00,37.4,36.0,30.22,SSE,165,0.0,4.0,94,0.00,,,0.00,weatherlink.com 1.10,2013-01-05 12:17:00,
2013-01-05 04:32:00,37.7,36.0,30.22,SSE,165,0.0,2.0,93,0.00,,,0.00,weatherlink.com 1.10,2013-01-05 12:32:00,
2013-01-05 04:47:00,37.6,36.0,30.23,SSE,165,1.0,2.0,93,0.00,,,0.00,weatherlink.com 1.10,2013-01-05 12:47:00,
2013-01-05 05:02:00,38.3,37.0,30.23,South,182,0.0,3.0,94,0.00,,,0.00,weatherlink.com 1.10,2013-01-05 13:02:00,
2013-01-05 05:17:00,38.2,36.0,30.23,South,182,0.0,1.0,93,0.00,,,0.00,weatherlink.com 1.10,2013-01-05 13:17:00,
2013-01-05 05:32:00,38.4,37.0,30.23,South,182,0.0,0.0,94,0.00,,,0.00,weatherlink.com 1.10,2013-01-05 13:32:00,
2013-01-05 05:47:00,38.9,37.0,30.23,South,182,0.0,1.0,94,0.00,,,0.00,weatherlink.com 1.10,2013-01-05 13:47:00,
2013-01-05 06:02:00,39.6,38.0,30.24,South,182,0.0,0.0,94,0.00,,,0.00,weatherlink.com 1.10,2013-01-05 14:02:00,
2013-01-05 06:18:00,40.4,39.0,30.24,South,182,0.0,1.0,94,0.00,,,0.00,weatherlink.com 1.10,2013-01-05 14:18:00,
2013-01-05 06:33:00,40.9,39.0,30.25,South,182,0.0,0.0,94,0.00,,,0.00,weatherlink.com 1.10,2013-01-05 14:33:00,
2013-01-05 06:48:00,41.5,40.0,30.24,South,182,0.0,0.0,94,0.00,,,0.00,weatherlink.com 1.10,2013-01-05 14:48:00,
2013-01-05 07:03:00,41.8,40.0,30.24,South,182,0.0,0.0,94,0.00,,,0.00,weatherlink.com 1.10,2013-01-05 15:03:00,
2013-01-05 07:18:00,42.2,41.0,30.25,South,182,0.0,0.0,94,0.00,,,0.00,weatherlink.com 1.10,2013-01-05 15:18:00,
2013-01-05 07:33:00,42.4,41.0,30.25,South,182,0.0,1.0,93,0.00,,,0.00,weatherlink.com 1.10,2013-01-05 15:33:00,
2013-01-05 07:48:00,42.7,41.0,30.25,South,182,0.0,0.0,93,0.00,,,0.00,weatherlink.com 1.10,2013-01-05 15:48:00,
2013-01-05 08:03:00,43.2,41.0,30.25,South,182,0.0,1.0,93,0.00,,,0.00,weatherlink.com 1.10,2013-01-05 16:03:00,
2013-01-05 08:18:00,43.5,41.0,30.25,South,182,0.0,0.0,92,0.00,,,0.00,weatherlink.com 1.10,2013-01-05 16:18:00,
2013-01-05 08:33:00,44.0,42.0,30.25,South,182,0.0,0.0,92,0.00,,,0.00,weatherlink.com 1.10,2013-01-05 16:33:00,
2013-01-05 08:48:00,44.4,41.0,30.25,South,182,0.0,1.0,89,0.00,,,0.00,weatherlink.com 1.10,2013-01-05 16:48:00,
2013-01-05 09:03:00,44.9,42.0,30.25,South,182,0.0,1.0,89,0.00,,,0.00,weatherlink.com 1.10,2013-01-05 17:03:00,
2013-01-05 09:18:00,45.6,42.0,30.25,South,171,0.0,2.0,87,0.00,,,0.00,weatherlink.com 1.10,2013-01-05 17:18:00,
2013-01-05 09:33:00,46.3,43.0,30.25,South,171,0.0,0.0,87,0.00,,,0.00,weatherlink.com 1.10,2013-01-05 17:33:00,
2013-01-05 09:48:00,47.0,43.0,30.25,South,171,0.0,0.0,85,0.00,,,0.00,weatherlink.com 1.10,2013-01-05 17:48:00,
2013-01-05 10:03:00,48.4,44.0,30.25,South,171,0.0,2.0,84,0.00,,,0.00,weatherlink.com 1.10,2013-01-05 18:03:00,
2013-01-05 10:18:00,49.7,44.0,30.24,ESE,103,1.0,5.0,81,0.00,,,0.00,weatherlink.com 1.10,2013-01-05 18:18:00,
2013-01-05 10:33:00,49.9,44.0,30.20,ESE,117,2.0,10.0,79,0.00,,,0.00,weatherlink.com 1.10,2013-01-05 18:33:00,
2013-01-05 10:48:00,50.2,45.0,30.18,SSE,148,5.0,10.0,82,0.00,,,0.00,weatherlink.com 1.10,2013-01-05 18:48:00,
2013-01-05 11:03:00,51.4,46.0,30.21,West,279,1.0,8.0,81,0.00,,,0.00,weatherlink.com 1.10,2013-01-05 19:03:00,
2013-01-05 11:18:00,52.2,46.0,30.21,NNE,26,2.0,2.0,79,0.00,,,0.00,weatherlink.com 1.10,2013-01-05 19:18:00,
2013-01-05 11:33:00,52.8,46.0,30.20,North,350,2.0,4.0,78,0.00,,,0.00,weatherlink.com 1.10,2013-01-05 19:33:00,
2013-01-05 11:48:00,53.3,46.0,30.19,North,355,1.0,3.0,77,0.00,,,0.00,weatherlink.com 1.10,2013-01-05 19:48:00,
2013-01-05 12:03:00,53.8,46.0,30.18,NNE,15,2.0,4.0,76,0.00,,,0.00,weatherlink.com 1.10,2013-01-05 20:03:00,
2013-01-05 12:18:00,54.3,47.0,30.17,NE,36,2.0,3.0,75,0.00,,,0.00,weatherlink.com 1.10,2013-01-05 20:18:00,
2013-01-05 12:34:00,54.4,46.0,30.17,NE,51,3.0,3.0,74,0.00,,,0.00,weatherlink.com 1.10,2013-01-05 20:34:00,
2013-01-05 12:49:00,53.7,46.0,30.16,ENE,71,2.0,4.0,75,0.00,,,0.00,weatherlink.com 1.10,2013-01-05 20:49:00,
2013-01-05 13:04:00,53.6,46.0,30.16,NE,53,1.0,3.0,76,0.00,,,0.00,weatherlink.com 1.10,2013-01-05 21:04:00,
2013-01-05 13:19:00,53.7,46.0,30.15,NE,53,1.0,3.0,76,0.00,,,0.00,weatherlink.com 1.10,2013-01-05 21:19:00,
2013-01-05 13:34:00,53.5,46.0,30.14,NE,53,0.0,2.0,77,0.00,,,0.00,weatherlink.com 1.10,2013-01-05 21:34:00,
2013-01-05 13:49:00,53.5,47.0,30.13,ESE,115,1.0,6.0,78,0.00,,,0.00,weatherlink.com 1.10,2013-01-05 21:49:00,
2013-01-05 14:04:00,53.4,47.0,30.13,ESE,121,0.0,3.0,78,0.00,,,0.00,weatherlink.com 1.10,2013-01-05 22:04:00,
2013-01-05 14:19:00,53.8,47.0,30.12,ESE,121,0.0,2.0,77,0.00,,,0.00,weatherlink.com 1.10,2013-01-05 22:19:00,
2013-01-05 14:34:00,54.1,46.0,30.12,ESE,121,0.0,1.0,73,0.00,,,0.00,weatherlink.com 1.10,2013-01-05 22:34:00,
2013-01-05 14:49:00,54.3,46.0,30.11,ESE,121,0.0,2.0,73,0.00,,,0.00,weatherlink.com 1.10,2013-01-05 22:49:00,
2013-01-05 15:04:00,54.3,46.0,30.11,ESE,121,0.0,1.0,74,0.00,,,0.00,weatherlink.com 1.10,2013-01-05 23:04:00,
2013-01-05 15:19:00,54.4,46.0,30.11,South,169,3.0,9.0,73,0.00,,,0.00,weatherlink.com 1.10,2013-01-05 23:19:00,
2013-01-05 15:34:00,54.0,46.0,30.10,SSE,155,2.0,9.0,73,0.00,,,0.00,weatherlink.com 1.10,2013-01-05 23:34:00,
2013-01-05 15:49:00,53.7,46.0,30.09,SSE,168,2.0,5.0,75,0.00,,,0.00,weatherlink.com 1.10,2013-01-05 23:49:00,
2013-01-05 16:04:00,53.6,46.0,30.08,South,173,3.0,6.0,76,0.00,,,0.00,weatherlink.com 1.10,2013-01-06 00:04:00,
2013-01-05 16:19:00,53.7,46.0,30.09,South,180,0.0,6.0,76,0.00,,,0.00,weatherlink.com 1.10,2013-01-06 00:19:00,
2013-01-05 16:34:00,53.4,47.0,30.09,South,180,4.0,7.0,78,0.00,,,0.00,weatherlink.com 1.10,2013-01-06 00:34:00,
2013-01-05 16:49:00,52.6,47.0,30.09,SSE,153,4.0,7.0,81,0.00,,,0.00,weatherlink.com 1.10,2013-01-06 00:49:00,
2013-01-05 17:04:00,52.3,47.0,30.09,SE,140,6.0,10.0,82,0.00,,,0.00,weatherlink.com 1.10,2013-01-06 01:04:00,
2013-01-05 17:19:00,52.0,47.0,30.09,SSE,163,3.0,9.0,83,0.00,,,0.00,weatherlink.com 1.10,2013-01-06 01:19:00,
2013-01-05 17:34:00,51.6,47.0,30.08,ESE,111,0.0,3.0,85,0.00,,,0.00,weatherlink.com 1.10,2013-01-06 01:34:00,
2013-01-05 17:49:00,51.7,47.0,30.08,SE,133,0.0,7.0,85,0.00,,,0.00,weatherlink.com 1.10,2013-01-06 01:49:00,
2013-01-05 18:04:00,51.8,48.0,30.08,SE,136,1.0,6.0,85,0.00,,,0.00,weatherlink.com 1.10,2013-01-06 02:04:00,
2013-01-05 18:19:00,51.6,48.0,30.08,SE,137,1.0,6.0,86,0.00,,,0.00,weatherlink.com 1.10,2013-01-06 02:19:00,
2013-01-05 18:34:00,51.3,48.0,30.07,South,178,0.0,3.0,88,0.00,,,0.00,weatherlink.com 1.10,2013-01-06 02:34:00,
2013-01-05 18:49:00,51.1,48.0,30.08,South,178,0.0,0.0,89,0.02,,,0.02,weatherlink.com 1.10,2013-01-06 02:49:00,
2013-01-05 19:04:00,50.8,48.0,30.07,South,187,2.0,4.0,90,0.02,,,0.02,weatherlink.com 1.10,2013-01-06 03:04:00,
2013-01-05 19:19:00,50.5,48.0,30.07,SSE,161,3.0,3.0,91,0.02,,,0.02,weatherlink.com 1.10,2013-01-06 03:19:00,
2013-01-05 19:34:00,50.2,48.0,30.07,SSE,161,0.0,3.0,92,0.02,,,0.02,weatherlink.com 1.10,2013-01-06 03:34:00,
2013-01-05 19:49:00,50.0,48.0,30.07,SSE,161,0.0,1.0,92,0.00,,,0.02,weatherlink.com 1.10,2013-01-06 03:49:00,
2013-01-05 20:04:00,49.9,48.0,30.07,SSE,161,0.0,2.0,92,0.00,,,0.02,weatherlink.com 1.10,2013-01-06 04:04:00,
2013-01-05 20:19:00,49.7,48.0,30.07,SSE,161,0.0,0.0,93,0.00,,,0.02,weatherlink.com 1.10,2013-01-06 04:19:00,
2013-01-05 20:34:00,49.5,48.0,30.07,SSE,161,0.0,2.0,93,0.00,,,0.02,weatherlink.com 1.10,2013-01-06 04:34:00,
2013-01-05 20:49:00,49.5,48.0,30.07,SSE,161,0.0,1.0,93,0.00,,,0.02,weatherlink.com 1.10,2013-01-06 04:49:00,
2013-01-05 21:04:00,49.5,48.0,30.07,SSE,161,0.0,0.0,93,0.00,,,0.02,weatherlink.com 1.10,2013-01-06 05:04:00,
2013-01-05 21:19:00,49.4,48.0,30.07,SSE,161,0.0,0.0,93,0.01,,,0.03,weatherlink.com 1.10,2013-01-06 05:19:00,
2013-01-05 21:34:00,49.2,48.0,30.07,SSE,161,1.0,2.0,94,0.01,,,0.03,weatherlink.com 1.10,2013-01-06 05:34:00,
2013-01-05 21:49:00,49.1,48.0,30.07,SSE,160,0.0,3.0,94,0.01,,,0.03,weatherlink.com 1.10,2013-01-06 05:49:00,
2013-01-05 22:04:00,49.0,47.0,30.07,SSE,160,0.0,0.0,93,0.01,,,0.03,weatherlink.com 1.10,2013-01-06 06:04:00,
2013-01-05 22:19:00,48.9,47.0,30.07,SSE,160,1.0,2.0,93,0.00,,,0.03,weatherlink.com 1.10,2013-01-06 06:19:00,
2013-01-05 22:34:00,48.9,47.0,30.07,SE,138,1.0,2.0,92,0.00,,,0.03,weatherlink.com 1.10,2013-01-06 06:34:00,
2013-01-05 22:49:00,48.9,47.0,30.08,SE,138,0.0,1.0,93,0.00,,,0.03,weatherlink.com 1.10,2013-01-06 06:49:00,
2013-01-05 23:04:00,48.9,47.0,30.07,West,273,2.0,4.0,92,0.00,,,0.03,weatherlink.com 1.10,2013-01-06 07:04:00,
2013-01-05 23:19:00,49.0,46.0,30.07,WSW,256,0.0,5.0,90,0.00,,,0.03,weatherlink.com 1.10,2013-01-06 07:19:00,
2013-01-05 23:34:00,48.9,46.0,30.07,WSW,250,0.0,2.0,90,0.01,,,0.04,weatherlink.com 1.10,2013-01-06 07:34:00,
2013-01-05 23:50:00,48.7,46.0,30.06,WSW,250,1.0,2.0,90,0.01,,,0.04,weatherlink.com 1.10,2013-01-06 07:50:00,